Location: La Brionne
(46.1728°N, 1.7849°E)
Time: 20:05:03
(UTC+00:00)

ACS3 Solar Sail - Visible Passes

Search period start: 10 April 2026 00:00
Search period end: 20 April 2026 00:00
Orbit: 871 x 978 km, 97.2° (Epoch: 10 April)

Date Brightness Start Highest point End Pass type
(mag) Time Alt. Az. Time Alt. Az. Time Alt. Az.
10 Apr 2.3 00:59:13 10° NNE 01:04:05 55° NE 01:04:05 55° NE visible
10 Apr 3.0 02:42:28 10° N 02:47:07 24° WNW 02:47:40 24° WNW visible
10 Apr 4.1 23:29:18 10° ENE 23:30:33 12° ENE 23:30:33 12° ENE visible
11 Apr 2.0 01:08:59 10° NNE 01:14:08 65° NE 01:14:08 65° NE visible
11 Apr 3.2 02:52:32 10° NNW 02:56:47 21° WNW 02:57:42 20° WNW visible
11 Apr 3.9 23:38:11 10° NE 23:40:33 15° ENE 23:40:33 15° ENE visible
12 Apr 1.8 01:18:44 10° NNE 01:24:07 73° NNE 01:24:07 73° NNE visible
12 Apr 3.4 03:02:38 10° NNW 03:06:23 17° WNW 03:07:41 16° WNW visible
12 Apr 3.7 23:47:20 10° NE 23:50:28 18° ENE 23:50:28 18° ENE visible
13 Apr 1.8 01:28:27 10° N 01:34:02 73° NW 01:34:02 73° NW visible
13 Apr 3.6 03:12:46 10° NNW 03:15:55 15° NW 03:17:36 13° WNW visible
13 Apr 3.5 23:56:35 10° NE 00:00:20 22° ENE 00:00:20 22° ENE visible
14 Apr 1.8 01:38:08 10° N 01:43:54 64° WNW 01:43:54 64° WNW visible
14 Apr 3.7 03:23:03 10° NNW 03:25:22 12° NW 03:27:27 10° WNW visible
15 Apr 3.2 00:05:53 10° NE 00:10:09 26° ENE 00:10:09 26° ENE visible
15 Apr 2.0 01:47:46 10° N 01:53:38 54° WNW 01:53:42 54° WNW visible
15 Apr 3.9 03:33:58 10° NW 03:34:44 10° NW 03:35:31 10° WNW visible
16 Apr 3.0 00:15:12 10° NNE 00:19:54 32° E 00:19:54 32° E visible
16 Apr 2.2 01:57:23 10° N 02:03:06 45° WNW 02:03:27 45° W visible
17 Apr 2.7 00:24:30 10° NNE 00:29:35 38° E 00:29:35 38° E visible
17 Apr 2.4 02:06:59 10° N 02:12:30 38° WNW 02:13:08 37° W visible
18 Apr 2.4 00:33:48 10° NNE 00:39:13 46° E 00:39:13 46° E visible
18 Apr 2.7 02:16:32 10° N 02:21:49 33° WNW 02:22:45 31° W visible
19 Apr 2.1 00:43:05 10° NNE 00:48:47 55° E 00:48:47 55° E visible
19 Apr 2.9 02:26:03 10° N 02:31:04 28° WNW 02:32:19 26° W visible
19 Apr 4.1 23:14:13 10° ENE 23:14:45 10° E 23:14:45 10° E visible
